TimeCEST,TemperatureF,Dew PointF,Humidity,Sea Level PressureIn,VisibilityMPH,Wind Direction,Wind SpeedMPH,Gust SpeedMPH,PrecipitationIn,Events,Conditions,WindDirDegrees,DateUTC
12:55 AM,62.6,60.8,94,29.89,6.2,WNW,4.6,-,N/A,,Partly Cloudy,290,2012-10-13 22:55:00
1:55 AM,60.8,60.8,100,29.89,6.2,WNW,8.1,-,N/A,,Partly Cloudy,300,2012-10-13 23:55:00
2:00 AM,62,61,94,29.90,7,WNW,8.1,,,,Partly Cloudy,300,2012-10-14 00:00:00
2:55 AM,60.8,60.8,100,29.89,-9999.0,West,2.3,-,N/A,,Clear,270,2012-10-14 00:55:00
3:55 AM,60.8,59.0,94,29.86,6.2,WNW,3.5,-,N/A,,Scattered Clouds,300,2012-10-14 01:55:00
4:55 AM,59.0,59.0,100,29.86,6.2,West,3.5,-,N/A,,Partly Cloudy,280,2012-10-14 02:55:00
5:00 AM,60,58,92,29.87,9,West,3.5,,,,Scattered Clouds,280,2012-10-14 03:00:00
5:55 AM,59.0,59.0,100,29.86,6.2,East,2.3,-,N/A,,Scattered Clouds,80,2012-10-14 03:55:00
6:55 AM,55.4,53.6,94,29.86,6.2,SSW,3.5,-,N/A,,Partly Cloudy,210,2012-10-14 04:55:00
7:55 AM,57.2,55.4,94,29.86,6.2,West,3.5,-,N/A,,Partly Cloudy,270,2012-10-14 05:55:00
8:00 AM,57,56,94,29.88,9,West,3.5,,,,Scattered Clouds,270,2012-10-14 06:00:00
8:55 AM,62.6,62.6,100,29.86,6.2,WNW,5.8,-,N/A,,Partly Cloudy,290,2012-10-14 06:55:00
9:55 AM,68.0,62.6,83,29.89,6.2,WNW,2.3,-,N/A,,Partly Cloudy,300,2012-10-14 07:55:00
10:55 AM,71.6,64.4,78,29.86,6.2,WSW,3.5,-,N/A,,Partly Cloudy,250,2012-10-14 08:55:00
11:00 AM,71,64,73,29.88,6,WSW,3.5,,,,Scattered Clouds,250,2012-10-14 09:00:00
11:55 AM,77.0,59.0,54,29.86,6.2,WSW,9.2,-,N/A,,Partly Cloudy,240,2012-10-14 09:55:00
12:55 PM,73.4,46.4,38,29.83,6.2,WSW,5.8,-,N/A,,Partly Cloudy,250,2012-10-14 10:55:00
1:55 PM,80.6,50.0,34,29.83,6.2,WNW,4.6,-,N/A,,Partly Cloudy,290,2012-10-14 11:55:00
2:00 PM,81,50,24,29.83,6,WNW,4.6,,,,Scattered Clouds,290,2012-10-14 12:00:00
2:55 PM,78.8,53.6,42,29.83,6.2,East,11.5,-,N/A,,Partly Cloudy,100,2012-10-14 12:55:00
3:55 PM,77.0,57.2,50,29.80,6.2,East,12.7,-,N/A,,Partly Cloudy,90,2012-10-14 13:55:00
4:55 PM,77.0,60.8,57,29.80,6.2,ENE,9.2,-,N/A,,Partly Cloudy,70,2012-10-14 14:55:00
5:00 PM,78,60,44,29.81,6,ENE,9.2,,,,Scattered Clouds,70,2012-10-14 15:00:00
5:55 PM,73.4,57.2,57,29.80,6.2,ENE,6.9,-,N/A,,Partly Cloudy,60,2012-10-14 15:55:00
6:55 PM,69.8,62.6,78,29.83,6.2,NE,1.2,-,N/A,,Scattered Clouds,50,2012-10-14 16:55:00
7:55 PM,68.0,62.6,83,29.83,6.2,Calm,Calm,-,N/A,,Scattered Clouds,0,2012-10-14 17:55:00
8:00 PM,69,63,76,29.83,6,Calm,Calm,,,,Partly Cloudy,,2012-10-14 18:00:00
8:55 PM,69.8,66.2,88,29.83,6.2,NW,3.5,-,N/A,,Scattered Clouds,320,2012-10-14 18:55:00
9:55 PM,69.8,68.0,94,29.83,6.2,NNW,2.3,-,N/A,,Scattered Clouds,340,2012-10-14 19:55:00
10:55 PM,68.0,68.0,100,29.83,6.2,WNW,5.8,-,N/A,,Scattered Clouds,290,2012-10-14 20:55:00
11:00 PM,68,68,100,29.85,6,WNW,5.8,,,,Scattered Clouds,290,2012-10-14 21:00:00
11:55 PM,66.2,66.2,100,29.83,6.2,WSW,2.3,-,N/A,,Scattered Clouds,250,2012-10-14 21:55:00